Grissom AFB, IN

9:50 AM EST on December 03, 2016 (GMT -0500)
Grissom Air Reserve Base

Weather History for KGUS - November, 2013

Change the Weather History Date:

Wednesday, November 13, 2013

  Actual Average Record
Temperature  
Mean Temperature 28 °F -  
Max Temperature 37 °F 47 °F 66 °F (2011)
Min Temperature 18 °F 33 °F 18 °F (2013)
Degree Days  
Heating Degree Days 38    
Moisture  
Dew Point 21 °F    
Average Humidity 78    
Maximum Humidity 100    
Minimum Humidity 52    
Precipitation  
Precipitation 0.00 in - - ()
Sea Level Pressure  
Sea Level Pressure 30.53 in    
Wind  
Wind Speed 10 mph (SW)    
Max Wind Speed 18 mph    
Max Gust Speed 25 mph    
Visibility 10 miles    
Events      
Averages and records for this station are not official NWS values.
T = Trace of Precipitation, MM = Missing Value Source: NWS Daily Summary

Daily Weather History Graph

Daily Weather History Graph

Search for Another Location

Airport or City:

Trip Planner

Search our weather history database for the weather conditions in past years. The results will help you decide how hot, cold, wet, or windy it might be!

Date:

Astronomy

Nov. 13, 2013 Rise Set
Actual Time 7:29 AM EST 5:28 PM EST
Civil Twilight 6:59 AM EST 5:57 PM EST
Nautical Twilight 6:27 AM EST 6:30 PM EST
Astronomical Twilight 5:54 AM EST 7:02 PM EST
Moon 3:16 PM EST (11/13) 3:20 AM EST (11/13)
Length of Visible Light 10h 57m
Length of Day
9h 59m
Waxing Gibbous, 84% of the Moon is Illuminated
Nov 13
Waxing Gibbous
Nov 17
Full
Nov 25
Last Quarter
Dec 2
New
Dec 9
First Quarter

Hourly Weather History & Observations

Time (EST) Temp. Windchill Dew Point Humidity Pressure Visibility Wind Dir Wind Speed Gust Speed Precip Events Conditions
12:58 AM 22.1 °F 13.7 °F 20.8 °F 95% 30.65 in 10.0 mi West 6.9 mph - N/A   Clear
1:58 AM 22.1 °F 14.7 °F 20.8 °F 95% 30.63 in 10.0 mi West 5.8 mph - N/A   Clear
2:58 AM 20.3 °F 10.6 °F 19.9 °F 99% 30.63 in 10.0 mi West 8.1 mph - N/A   Clear
3:58 AM 18.1 °F 8.9 °F 17.8 °F 98% 30.63 in 10.0 mi WSW 6.9 mph - N/A   Clear
4:58 AM 18.5 °F 9.3 °F 18.5 °F 100% 30.64 in 10.0 mi West 6.9 mph - N/A   Clear
5:58 AM 18.0 °F 7.7 °F 17.8 °F 99% 30.62 in 10.0 mi WSW 8.1 mph - N/A   Clear
6:58 AM 18.5 °F 9.3 °F 18.5 °F 100% 30.63 in 10.0 mi WSW 6.9 mph - N/A   Clear
7:58 AM 18.0 °F 7.7 °F 17.8 °F 99% 30.63 in 10.0 mi WSW 8.1 mph - N/A   Clear
8:58 AM 22.6 °F 10.7 °F 20.8 °F 93% 30.64 in 10.0 mi West 12.7 mph - N/A   Clear
9:58 AM 25.9 °F 14.8 °F 22.3 °F 86% 30.63 in 10.0 mi WSW 12.7 mph - N/A   Clear
10:58 AM 28.8 °F 19.0 °F 22.1 °F 76% 30.62 in 10.0 mi WSW 11.5 mph - N/A   Clear
11:58 AM 31.1 °F 20.9 °F 21.2 °F 67% 30.59 in 10.0 mi SW 13.8 mph - N/A   Clear
12:58 PM 34.2 °F 24.8 °F 21.9 °F 61% 30.54 in 10.0 mi WSW 13.8 mph - N/A   Clear
1:58 PM 35.6 °F 25.5 °F 20.8 °F 55% 30.51 in 10.0 mi WSW 17.3 mph - N/A   Clear
2:58 PM 37.2 °F 27.3 °F 21.0 °F 52% 30.48 in 10.0 mi SW 18.4 mph - N/A   Clear
3:58 PM 37.4 °F 28.5 °F 22.5 °F 55% 30.46 in 10.0 mi SW 15.0 mph - N/A   Clear
4:58 PM 35.4 °F 25.3 °F 20.5 °F 55% 30.44 in 10.0 mi SW 17.3 mph - N/A   Clear
5:58 PM 32.0 °F 23.6 °F 22.1 °F 67% 30.43 in 10.0 mi SSW 10.4 mph - N/A   Clear
6:58 PM 30.9 °F 21.7 °F 22.3 °F 70% 30.42 in 10.0 mi SSW 11.5 mph - N/A   Clear
7:58 PM 30.7 °F 21.4 °F 22.1 °F 70% 30.40 in 10.0 mi SSW 11.5 mph - N/A   Clear
8:58 PM 30.2 °F 19.3 °F 21.7 °F 71% 30.38 in 10.0 mi SSW 15.0 mph - N/A   Clear
9:58 PM 31.1 °F 19.7 °F 21.4 °F 67% 30.35 in 10.0 mi SSW 17.3 mph 25.3 mph N/A   Clear
10:58 PM 30.9 °F 19.8 °F 21.0 °F 67% 30.34 in 10.0 mi SW 16.1 mph - N/A   Clear
11:58 PM 30.4 °F 19.1 °F 22.1 °F 71% 30.32 in 10.0 mi SSW 16.1 mph - N/A   Clear